Date,TemperatureHighF,TemperatureAvgF,TemperatureLowF,DewpointHighF,DewpointAvgF,DewpointLowF,HumidityHigh,HumidityAvg,HumidityLow,PressureMaxIn,PressureMinIn,WindSpeedMaxMPH,WindSpeedAvgMPH,GustSpeedMaxMPH,PrecipitationSumIn
2013-1-1,32.9,26.0,19.7,21.7,18.8,15.4,84,74,57,29.34,28.77,12,0,12,0.00
2013-1-2,21.3,9.1,-1.2,17.5,3.9,-8.3,85,79,71,29.17,28.80,3,0,4,0.00
2013-1-3,7.9,4.9,1.0,2.5,-1.2,-6.0,78,75,73,29.27,29.16,4,0,4,0.00
2013-1-4,9.8,1.5,-5.8,4.6,-5.1,-14.0,79,73,67,29.46,29.25,3,0,3,0.00
2013-1-5,0.8,-5.4,-10.7,-6.1,-13.7,-20.1,72,66,63,29.45,29.02,3,0,3,0.00
2013-1-6,6.6,-1.4,-9.2,0.1,-9.2,-18.4,74,69,63,29.03,28.86,2,0,3,0.00
2013-1-7,-2.3,-9.4,-19.4,-10.3,-18.6,-30.2,68,63,56,29.15,28.78,2,0,3,0.00
2013-1-8,-0.5,-9.4,-21.6,-8.3,-18.7,-33.0,69,63,54,29.73,29.14,2,0,2,0.00
2013-1-9,-2.0,-11.6,-19.4,-10.6,-21.3,-30.6,68,61,56,29.80,29.52,0,0,0,0.00
2013-1-10,11.3,3.2,-12.3,5.5,-3.9,-22.8,77,72,61,29.71,29.50,0,0,0,0.00
2013-1-11,14.6,5.4,-9.1,9.6,-1.1,-18.2,80,74,64,29.82,29.49,0,0,0,0.00
2013-1-12,22.4,17.7,14.0,18.5,13.0,9.0,85,82,80,29.81,29.33,7,0,8,0.00
2013-1-13,32.7,28.1,17.8,30.0,25.0,13.5,91,88,83,29.37,29.14,4,0,4,0.00
2013-1-14,35.2,32.1,27.8,32.8,29.6,25.2,92,90,83,29.47,28.83,16,1,16,0.18
2013-1-15,30.4,13.4,1.5,25.1,8.2,-5.1,85,79,70,29.84,29.46,16,1,16,0.00
2013-1-16,6.2,-0.5,-10.1,0.0,-7.5,-19.0,76,71,64,29.84,29.46,4,0,4,0.00
2013-1-17,6.5,-3.5,-19.2,0.3,-11.4,-29.8,75,68,57,29.80,29.42,3,0,3,0.00
2013-1-18,-13.9,-26.0,-32.9,-23.4,-37.7,-45.6,62,52,48,30.05,29.79,1,0,1,0.00
2013-1-19,7.8,3.4,-20.7,-8.2,-11.2,-31.9,65,50,43,30.06,29.73,12,2,12,0.00
2013-1-20,12.0,9.2,4.8,5.0,0.0,-10.6,76,66,47,29.73,29.64,10,1,10,0.00
2013-1-21,11.7,7.9,-4.3,4.7,-0.4,-13.1,76,68,62,29.76,29.64,7,1,7,0.00
2013-1-22,11.2,8.2,3.4,-1.4,-3.3,-5.5,71,59,56,29.65,29.36,12,3,13,0.00
2013-1-23,9.4,7.1,3.0,-3.5,-7.7,-14.0,58,50,44,29.37,29.24,22,5,22,0.00
2013-1-24,3.2,-3.6,-14.2,-9.4,-15.1,-25.3,64,57,46,29.47,29.30,18,3,22,0.00
2013-1-25,-13.8,-31.7,-44.9,-24.3,-45.1,-60.8,58,46,37,29.67,29.47,4,0,4,0.00
2013-1-26,-29.3,-40.4,-48.1,-42.2,-55.5,-65.0,48,40,34,29.81,29.66,0,0,0,0.00
2013-1-27,0.0,-41.5,-51.0,0.0,-56.2,-68.0,43,36,33,30.25,29.81,0,0,0,0.00
2013-1-28,-8.8,-40.1,-50.6,-19.6,-55.6,-67.7,61,39,33,30.27,29.70,7,0,7,0.00
2013-1-29,-3.6,-9.6,-20.2,-16.7,-22.2,-32.3,62,53,43,29.70,29.53,13,1,13,0.00
2013-1-30,7.8,0.9,-8.5,-1.4,-9.0,-18.0,69,62,58,29.58,29.31,2,0,2,0.00
2013-1-31,11.5,7.3,1.8,3.8,0.1,-6.0,74,72,69,29.75,29.35,4,0,4,0.00
2013-2-1,12.5,1.1,-8.6,5.5,-6.5,-17.6,75,70,63,29.80,29.51,4,0,4,0.00
2013-2-2,23.2,10.4,-6.6,8.8,0.2,-15.4,78,63,52,29.51,29.14,12,1,12,0.00
2013-2-3,14.5,5.7,-1.3,7.4,-1.6,-9.3,77,71,68,29.15,28.95,4,0,5,0.00
2013-2-4,14.2,9.9,-2.3,8.0,3.5,-10.3,78,75,68,29.30,29.12,3,0,3,0.00
2013-2-5,3.6,-1.2,-6.6,-2.8,-8.4,-15.1,74,71,66,29.30,29.24,2,0,2,0.00
2013-2-6,4.0,0.4,-5.8,-2.7,-6.8,-14.0,73,71,67,29.37,29.23,3,0,3,0.00
2013-2-7,6.0,-2.6,-16.4,-0.5,-10.5,-26.8,74,68,58,29.34,28.95,2,0,2,0.00
2013-2-8,6.4,2.8,-4.6,-0.5,-4.7,-13.4,74,70,65,29.46,28.98,2,0,2,0.00
2013-2-9,31.4,11.6,-11.1,21.4,3.8,-20.5,84,70,62,29.45,28.66,12,0,12,0.00
2013-2-10,27.7,15.7,4.1,23.7,10.8,-1.8,87,81,75,29.13,28.58,8,0,8,0.00
2013-2-11,21.2,16.0,1.5,14.8,10.9,-5.6,85,80,73,29.36,29.13,5,0,5,0.00
2013-2-12,13.3,-3.8,-14.9,6.3,-12.0,-24.7,75,67,60,29.43,29.35,2,0,2,0.00
2013-2-13,14.2,-5.0,-13.7,7.2,-13.4,-23.6,74,66,60,29.42,29.37,3,0,3,0.00
2013-2-14,22.4,8.8,-4.3,15.6,2.1,-12.7,80,74,66,29.38,28.97,2,0,2,0.00
2013-2-15,20.4,8.3,-4.1,13.7,0.7,-12.4,80,71,63,29.69,29.06,12,1,12,0.00
2013-2-16,6.3,-8.1,-22.4,-5.7,-17.9,-33.9,68,61,54,29.75,29.51,5,0,5,0.00
2013-2-17,-2.1,-6.2,-13.4,-11.0,-15.4,-23.4,66,63,60,29.81,29.47,7,0,7,0.00
2013-2-18,-7.1,-20.0,-36.1,-16.4,-31.7,-50.0,63,53,44,29.90,29.78,2,0,2,0.00
2013-2-19,0.5,-20.7,-41.5,-15.2,-35.3,-56.9,63,45,39,29.78,29.22,13,2,14,0.00
2013-2-20,3.1,-2.2,-9.9,-12.5,-17.2,-23.4,55,48,41,29.22,29.02,17,4,17,0.00
2013-2-21,1.9,-1.3,-4.0,-10.6,-14.9,-19.0,60,52,41,29.10,28.97,19,5,19,0.00
2013-2-22,-3.1,-8.4,-26.1,-15.3,-20.4,-38.9,60,54,46,29.27,29.01,11,1,11,0.00
2013-2-23,7.4,-3.8,-26.5,-8.7,-17.9,-39.3,60,50,43,29.19,28.94,13,2,13,0.00
2013-2-24,-6.8,-13.0,-17.1,-18.6,-23.7,-28.4,60,58,55,29.11,28.97,0,0,0,0.00
2013-2-25,18.0,3.9,-11.7,1.5,-9.1,-22.0,63,54,45,29.39,29.34,5,0,5,0.00
2013-2-26,25.4,0.9,-16.5,5.0,-11.7,-27.8,70,55,40,29.39,29.10,4,0,4,0.00
2013-2-27,35.1,9.7,-9.6,11.1,-3.6,-19.4,75,56,36,29.10,28.94,7,0,7,0.04
2013-2-28,35.0,7.0,-9.5,10.8,-6.1,-19.6,72,57,33,29.05,28.99,4,0,4,0.02
2013-3-1,15.7,14.0,10.7,7.3,6.0,3.2,76,70,66,29.54,29.39,5,0,5,0.00
2013-3-2,18.7,4.9,-6.2,8.1,-3.7,-15.3,78,67,62,29.78,29.54,4,0,4,0.00
2013-3-3,21.6,-2.4,-16.6,6.3,-12.6,-27.3,70,61,50,30.04,29.78,2,0,2,0.00
2013-3-4,29.1,2.8,-16.5,9.1,-8.9,-27.3,70,58,42,30.09,29.89,1,0,1,0.00
2013-3-5,32.5,12.1,-1.4,10.9,0.4,-9.6,73,60,38,29.89,29.54,1,0,1,0.00
2013-3-6,19.1,0.8,-8.5,2.4,-9.4,-18.0,73,62,47,29.56,29.47,4,0,4,0.00
2013-3-7,-5.7,-7.2,-7.9,-14.7,-16.3,-17.4,65,63,62,29.48,29.34,0,0,0,0.00
2013-3-8,47.1,32.5,-6.1,22.0,16.8,-14.8,76,55,34,29.34,29.03,7,0,12,0.01
2013-3-9,40.4,27.7,15.8,25.5,17.2,7.2,88,65,45,29.62,29.24,8,0,8,0.00
2013-3-10,28.8,20.9,3.1,25.5,13.2,-4.9,88,73,51,29.93,29.62,9,1,10,0.00
2013-3-11,23.7,6.0,-8.4,9.6,-3.8,-17.9,73,64,53,30.20,29.93,6,0,6,0.00
2013-3-12,24.8,1.9,-15.1,0.3,-13.2,-25.9,71,51,26,30.20,29.96,2,0,2,0.00
2013-3-13,15.5,-3.0,-22.3,-5.9,-22.5,-35.4,65,40,21,29.97,29.85,30,5,30,0.00
2013-3-14,17.8,5.4,-3.8,-13.0,-20.9,-28.1,32,28,23,29.88,29.76,26,8,26,0.00
2013-3-15,23.5,10.3,-3.2,-12.4,-18.3,-25.1,34,26,18,29.80,29.56,19,3,19,0.00
2013-3-16,27.0,11.5,-7.1,-2.6,-12.6,-24.2,50,33,26,29.81,29.62,12,1,12,0.00
2013-3-17,16.4,-0.5,-18.1,-6.1,-16.1,-30.4,63,47,35,29.93,29.77,3,0,4,0.00
2013-3-18,18.8,0.9,-12.4,-5.6,-14.8,-24.7,61,48,33,29.77,29.62,3,0,4,0.00
2013-3-19,17.1,-4.1,-23.0,-5.2,-20.2,-36.1,61,46,28,29.77,29.66,9,0,9,0.00
2013-3-20,12.8,-3.6,-21.6,-6.8,-18.3,-34.4,61,49,38,29.67,29.55,6,0,6,0.00
2013-3-21,23.5,10.3,0.4,7.1,-3.7,-9.2,68,54,30,29.73,29.60,8,0,8,0.00
2013-3-22,32.5,20.7,6.6,11.2,1.8,-6.8,59,45,29,29.64,29.29,9,0,9,0.01
2013-3-23,28.0,3.7,-15.2,15.4,-9.8,-28.2,77,54,33,29.69,29.31,10,2,16,0.00
2013-3-24,8.7,-5.3,-22.7,-1.6,-17.0,-35.4,70,56,43,29.67,29.38,6,0,6,0.00
2013-3-25,8.3,4.9,2.7,-2.2,-4.5,-7.4,70,64,54,29.40,29.25,11,1,11,0.00
2013-3-26,4.8,-1.3,-19.3,-7.4,-16.1,-32.6,63,49,35,29.83,29.40,13,2,13,0.00
2013-3-27,15.1,-9.1,-32.4,-10.0,-26.4,-46.6,55,42,31,29.89,29.74,2,0,6,0.00
2013-3-28,34.6,3.0,-25.4,7.1,-15.4,-38.6,61,43,28,29.74,29.50,3,0,7,0.01
2013-3-29,46.3,25.2,2.3,15.2,6.2,-8.4,66,47,27,29.52,29.45,4,0,8,0.00
2013-3-30,39.5,28.2,2.1,13.2,8.8,-5.4,77,45,33,29.81,29.52,6,0,6,0.00
2013-3-31,39.7,28.9,19.1,25.2,16.7,9.4,77,61,50,29.87,29.75,7,0,7,0.00
2013-4-1,38.6,28.9,18.7,24.7,18.5,13.0,87,67,45,29.75,29.65,10,1,10,0.00
2013-4-2,36.2,25.0,7.1,15.3,10.5,-0.0,76,55,40,29.82,29.69,13,1,13,0.00
2013-4-3,31.3,24.0,17.2,7.8,1.8,-6.2,54,39,25,30.09,29.81,24,5,24,0.00
2013-4-4,30.4,20.4,11.7,-5.3,-7.0,-9.5,39,30,19,30.11,29.71,19,6,21,0.00
2013-4-5,18.4,13.4,5.6,-4.7,-11.4,-15.6,40,32,25,29.71,29.35,20,6,20,0.00
2013-4-6,20.6,10.2,1.4,-5.3,-12.9,-17.3,41,34,26,29.35,29.20,14,4,14,0.00
2013-4-7,8.3,5.2,-1.7,0.1,-5.7,-13.9,70,60,37,29.53,29.25,8,1,9,0.00
2013-4-8,12.2,0.9,-19.7,3.2,-8.6,-31.6,72,64,53,29.55,29.09,7,1,7,0.00
2013-4-9,11.6,9.0,6.8,3.9,1.3,-1.7,73,70,60,29.09,28.76,11,1,11,0.00
2013-4-10,14.1,7.0,-10.5,-1.0,-8.4,-22.9,65,49,34,29.58,29.07,10,2,11,0.00
2013-4-11,15.1,-1.7,-24.2,-5.8,-17.9,-37.1,61,46,35,29.86,29.58,8,1,8,0.00
2013-4-12,23.6,4.1,-19.4,-0.1,-13.0,-31.4,61,45,34,29.96,29.86,6,1,10,0.03
2013-4-13,26.2,7.5,-17.2,-2.5,-11.5,-29.2,62,43,26,30.10,29.96,4,1,8,0.02
2013-4-14,29.8,15.8,-4.1,12.8,0.5,-15.8,59,51,36,30.19,30.10,4,1,10,0.02
2013-4-15,32.0,23.8,9.5,11.2,3.4,0.4,70,43,27,30.15,30.06,11,3,18,0.00
2013-4-16,29.3,21.1,4.0,10.5,2.6,-7.5,59,45,34,30.06,29.86,5,1,12,0.00
2013-4-17,30.8,20.7,-0.4,5.5,1.6,-9.7,69,45,32,29.99,29.87,14,2,16,0.00
2013-4-18,32.1,22.5,1.5,5.4,0.8,-9.2,60,39,28,30.04,29.99,11,3,18,0.00
2013-4-19,42.0,24.4,1.5,9.0,1.9,-8.7,64,40,24,30.10,30.02,5,1,13,0.00
2013-4-20,43.8,26.9,5.1,12.4,5.0,-4.4,66,42,23,30.03,29.90,5,1,8,0.00
2013-4-21,45.0,29.0,6.7,14.2,8.0,-0.7,73,45,23,29.99,29.93,4,1,7,0.00
2013-4-22,48.1,28.5,7.7,15.0,9.3,1.0,75,49,21,30.10,29.99,3,0,8,0.00
2013-4-23,48.4,33.4,13.3,17.4,13.4,7.4,78,48,26,30.02,29.81,7,2,13,0.00
2013-4-24,38.8,34.0,29.8,30.3,25.1,14.8,92,72,38,29.81,29.60,7,3,18,0.07
2013-4-25,33.4,26.8,17.5,22.6,2.7,-5.6,77,36,24,29.72,29.61,10,3,12,0.00
2013-4-26,31.8,21.2,4.5,20.6,7.7,-2.8,81,57,36,29.64,29.23,4,1,9,0.00
2013-4-27,28.7,23.7,13.1,17.9,2.0,-9.7,83,44,21,29.77,29.28,14,4,20,0.00
2013-4-28,36.5,19.2,-2.7,13.2,-1.4,-12.5,63,42,26,29.81,29.71,4,0,11,0.00
2013-4-29,32.0,27.9,18.9,26.4,18.8,9.3,88,69,49,29.76,29.70,8,2,13,0.00
2013-4-30,37.7,31.2,27.2,26.6,24.5,18.3,90,77,52,29.70,29.49,5,1,13,0.13
2013-5-1,39.2,30.4,25.2,20.1,16.9,10.6,78,58,41,29.49,29.27,10,4,14,0.00
2013-5-2,38.1,29.5,21.8,21.6,16.4,11.2,68,58,49,29.53,29.33,4,1,8,0.00
2013-5-3,42.6,32.2,25.9,28.6,25.0,20.5,88,76,52,29.57,29.44,7,3,13,0.05
2013-5-4,35.7,28.1,20.8,23.2,19.8,16.7,85,71,59,29.61,29.51,6,2,8,0.01
2013-5-5,39.8,30.9,20.1,19.4,14.3,9.3,82,54,31,29.76,29.61,8,2,14,0.00
2013-5-6,43.7,33.2,13.4,19.9,13.3,9.7,87,47,26,29.82,29.73,8,1,15,0.00
2013-5-7,45.6,35.6,20.4,23.7,19.6,14.6,82,54,36,29.88,29.82,8,2,13,0.00
2013-5-8,50.1,38.3,18.3,23.4,19.7,14.8,88,51,29,29.95,29.85,6,1,11,0.00
2013-5-9,59.6,43.9,20.9,26.0,19.9,16.8,86,45,19,29.98,29.81,4,1,9,0.00
2013-5-10,58.4,46.8,34.5,29.0,23.3,18.0,68,43,21,29.84,29.56,4,1,8,0.00
2013-5-11,59.2,47.0,30.5,26.7,25.1,22.1,77,45,27,29.56,29.27,5,1,11,0.00
2013-5-12,51.1,42.8,32.6,28.6,26.2,21.6,76,54,32,29.28,29.09,6,1,15,0.00
2013-5-13,41.3,30.2,23.2,25.9,4.7,-0.9,58,34,27,29.30,29.12,9,3,17,0.00
2013-5-14,42.7,32.2,19.7,15.1,11.8,8.1,73,46,26,29.29,29.24,7,1,10,0.00
2013-5-15,50.7,39.5,16.8,17.7,14.4,10.9,81,40,22,29.32,29.24,15,2,15,0.00
2013-5-16,53.2,42.1,24.6,29.4,20.4,13.3,68,44,27,29.29,29.02,11,1,11,0.00
2013-5-17,38.0,33.2,26.6,30.7,26.7,20.7,85,77,65,29.29,29.00,15,3,15,0.01
2013-5-18,34.1,27.8,22.8,20.4,7.5,0.5,80,45,24,29.81,29.28,14,4,15,0.00
2013-5-19,46.1,34.7,22.4,16.8,8.1,2.6,56,34,21,30.19,29.81,13,2,13,0.00
2013-5-20,56.6,41.6,22.0,22.3,14.9,12.0,75,39,17,30.26,30.04,13,1,13,0.00
2013-5-21,64.1,47.4,24.0,28.5,17.4,13.5,71,36,15,30.08,29.75,10,1,10,0.00
2013-5-22,67.8,50.7,27.1,29.0,23.8,18.9,74,39,19,29.75,29.57,16,2,16,0.00
2013-5-23,64.3,50.9,30.4,39.8,31.7,23.2,77,50,32,29.72,29.62,11,2,11,0.00
2013-5-24,70.5,57.1,35.5,40.6,35.4,28.6,86,49,24,29.76,29.58,10,1,10,0.00
2013-5-25,77.2,62.6,37.6,34.6,30.5,24.9,77,34,15,29.60,29.42,12,1,12,0.00
2013-5-26,79.7,61.2,34.2,45.6,32.8,27.5,79,40,18,29.50,29.39,12,1,12,0.00
2013-5-27,80.7,66.1,42.8,46.4,39.0,35.1,80,42,20,29.49,29.36,11,1,11,0.00
2013-5-28,82.2,65.3,42.2,49.9,39.9,34.8,85,46,19,29.41,29.29,15,1,15,0.00
2013-5-29,82.1,68.4,46.0,51.2,37.4,31.7,81,38,17,29.32,29.26,13,2,13,0.00
2013-5-30,84.0,67.4,42.6,45.8,37.7,26.7,84,40,13,29.45,29.31,9,1,9,0.00
2013-5-31,81.5,62.9,41.1,55.2,41.7,25.2,98,56,13,29.58,29.45,13,1,13,0.01
2013-6-1,77.3,63.6,40.2,48.7,40.3,35.2,92,48,24,29.68,29.58,17,3,17,0.00
2013-6-2,79.7,67.0,50.5,47.8,42.1,36.4,68,43,24,29.68,29.47,16,2,16,0.00
2013-6-3,59.7,55.4,50.8,51.6,48.7,44.4,95,79,65,29.54,29.26,15,1,15,0.04
2013-6-4,60.8,53.1,46.6,50.7,47.2,41.7,97,81,51,29.27,29.17,16,1,16,0.07
2013-6-5,57.2,51.4,45.3,50.7,46.5,43.0,100,84,65,29.48,29.23,19,2,20,0.06
2013-6-6,64.4,54.5,43.3,48.6,45.6,40.4,99,74,46,29.50,29.39,15,1,15,0.03
2013-6-7,70.3,59.3,38.9,51.8,45.2,37.5,100,64,33,29.53,29.41,5,0,11,0.00
2013-6-8,72.8,60.5,42.2,54.6,45.4,39.7,100,62,32,29.72,29.53,13,0,13,0.00
2013-6-9,68.2,58.7,44.3,51.1,45.1,40.7,100,63,39,29.83,29.72,15,1,15,0.00
2013-6-10,60.4,53.9,47.7,50.4,46.6,43.5,98,77,57,29.88,29.82,14,2,14,0.03
2013-6-11,67.9,55.1,34.8,46.8,40.3,31.0,100,61,32,29.90,29.73,14,1,14,0.00
2013-6-12,71.5,60.2,39.9,43.0,34.0,28.3,76,41,21,29.76,29.66,16,3,16,0.00
2013-6-13,77.8,63.7,37.7,43.4,35.0,29.3,82,39,18,29.75,29.67,13,2,13,0.00
2013-6-14,82.5,66.7,42.2,48.4,38.9,22.0,91,43,11,29.79,29.71,9,1,9,0.00
2013-6-15,84.9,67.3,42.1,51.3,44.4,38.9,93,50,23,29.87,29.77,9,1,9,0.00
2013-6-16,88.5,73.2,52.7,58.4,52.7,47.5,88,53,32,29.87,29.76,11,2,12,0.00
2013-6-17,84.7,74.5,55.2,54.7,42.9,34.9,87,37,18,29.84,29.72,21,4,21,0.00
2013-6-18,86.5,75.2,58.9,48.6,42.6,36.5,55,33,21,29.74,29.50,14,2,14,0.00
2013-6-19,87.0,74.4,50.9,52.1,45.2,40.9,89,40,21,29.54,29.42,9,2,12,0.00
2013-6-20,85.8,71.2,47.4,54.9,45.4,39.7,88,45,21,29.56,29.40,8,1,8,0.00
2013-6-21,72.0,65.2,56.6,59.5,51.8,45.3,95,63,41,29.54,29.40,11,1,11,0.02
2013-6-22,75.4,63.2,45.2,52.3,45.0,40.0,89,56,30,29.53,29.32,9,1,9,0.00
2013-6-23,84.5,67.6,42.7,52.1,44.5,38.2,96,50,21,29.34,29.19,13,0,13,0.00
2013-6-24,86.3,75.4,60.3,55.3,49.9,45.7,67,43,27,29.28,29.21,11,1,14,0.00
2013-6-25,90.4,79.2,66.1,57.7,52.9,49.0,60,42,28,29.29,29.22,16,3,16,0.00
2013-6-26,92.5,79.8,67.8,57.6,52.3,48.3,56,40,26,29.34,29.28,12,2,12,0.00
2013-6-27,82.8,71.9,57.2,63.0,58.1,52.2,89,63,43,29.61,29.34,13,2,17,0.00
2013-6-28,79.3,69.7,57.1,61.6,57.0,52.3,89,66,43,29.67,29.61,10,1,10,0.00
2013-6-29,77.9,68.8,58.6,61.0,57.3,53.2,94,69,44,29.62,29.51,0,0,5,0.00
2013-6-30,84.6,69.5,50.3,63.1,56.1,49.5,100,66,37,29.51,29.26,5,1,15,0.00
2013-7-1,79.5,65.0,53.8,58.4,51.6,46.2,95,64,39,29.27,29.06,14,1,20,0.01
2013-7-2,70.8,58.3,45.8,56.5,48.0,38.8,99,73,33,29.34,29.14,11,1,11,0.10
2013-7-3,69.6,56.7,39.6,50.3,44.6,38.0,100,68,35,29.52,29.33,12,0,12,0.00
2013-7-4,67.1,57.5,44.1,48.7,41.9,36.8,89,59,36,29.63,29.48,13,1,13,0.00
2013-7-5,68.3,56.9,43.5,55.6,46.0,39.8,100,70,38,29.68,29.57,16,1,16,0.00
2013-7-6,76.5,59.5,37.6,49.3,42.8,36.1,100,61,27,29.58,29.36,6,0,8,0.00
2013-7-7,75.0,60.8,40.5,50.4,43.2,36.5,92,57,30,29.36,29.14,9,0,9,0.00
2013-7-8,62.9,54.2,43.3,56.1,49.8,40.7,100,86,63,29.35,29.17,9,0,10,0.05
2013-7-9,64.8,56.8,51.2,53.5,49.3,45.0,100,78,51,29.61,29.35,13,2,13,0.02
2013-7-10,58.3,54.0,50.5,51.5,49.1,46.8,95,84,72,29.67,29.59,12,2,12,0.28
2013-7-11,67.3,58.9,50.4,55.3,50.6,47.7,94,76,54,29.70,29.65,11,1,11,0.00
2013-7-12,79.2,66.1,49.6,55.6,44.7,35.4,81,50,21,29.68,29.57,12,2,14,0.00
2013-7-13,84.2,70.6,51.9,55.3,46.7,40.2,80,46,25,29.64,29.59,10,1,10,0.00
2013-7-14,87.0,69.5,45.0,58.4,51.0,41.7,93,57,33,29.74,29.62,13,2,13,0.00
2013-7-15,72.1,61.7,54.6,60.7,54.2,50.1,98,77,48,29.82,29.72,11,1,11,0.00
2013-7-16,66.4,63.8,61.4,60.7,58.3,56.2,88,82,79,29.74,29.72,9,1,9,0.00
2013-7-17,71.3,63.2,58.0,59.7,55.9,47.8,100,79,45,29.73,29.66,12,2,12,0.00
2013-7-18,72.4,63.0,53.6,62.0,56.5,49.4,100,82,48,29.77,29.65,11,1,11,0.42
2013-7-19,61.9,58.7,56.6,61.9,58.7,56.6,100,100,99,29.74,29.68,18,3,18,0.28
2013-7-20,64.1,57.2,52.9,60.0,55.6,52.9,100,95,76,29.73,29.70,15,3,17,0.12
2013-7-21,66.5,59.4,52.0,58.3,55.8,52.0,100,89,68,29.79,29.72,5,2,9,0.00
2013-7-22,73.5,58.3,37.7,57.7,50.1,37.4,100,77,46,29.83,29.73,6,1,10,0.00
2013-7-23,79.1,65.8,50.8,61.2,55.8,50.0,100,73,48,29.75,29.64,5,1,10,0.00
2013-7-24,72.2,64.4,52.8,65.1,59.5,52.8,100,85,62,29.65,29.58,5,1,16,0.00
2013-7-25,72.8,64.2,57.4,63.5,57.6,49.0,100,81,54,29.68,29.59,6,2,15,0.01
2013-7-26,74.8,61.7,45.1,62.1,52.8,43.3,97,76,42,29.80,29.68,8,0,17,0.00
2013-7-27,78.4,64.1,46.0,65.7,58.6,46.0,100,84,60,29.87,29.80,7,1,13,0.00
2013-7-28,86.9,70.2,48.2,67.7,58.1,48.2,100,71,31,29.83,29.67,4,0,12,0.00
2013-7-29,79.8,71.2,59.2,60.7,58.0,53.2,92,65,42,29.76,29.68,8,2,16,0.00
2013-7-30,76.5,64.6,46.1,62.5,54.8,46.1,100,74,50,29.81,29.73,8,1,12,0.00
2013-7-31,80.5,63.8,40.0,57.0,51.5,38.4,100,69,40,29.80,29.64,6,0,12,0.00
2013-8-1,85.5,71.3,44.7,64.2,55.9,43.4,100,62,39,29.66,29.44,3,0,7,0.00
2013-8-2,83.7,67.8,47.6,56.2,51.3,46.6,99,62,29,29.48,29.33,4,0,12,0.00
2013-8-3,84.3,62.8,45.0,63.2,52.2,43.9,100,75,27,29.35,29.26,3,0,8,0.07
2013-8-4,75.7,63.6,49.3,58.6,51.4,46.5,100,69,37,29.52,29.35,6,1,11,0.01
2013-8-5,77.9,61.4,42.6,57.6,49.4,42.6,100,71,33,29.56,29.49,5,0,8,0.00
2013-8-6,82.9,63.7,39.9,54.0,46.7,39.9,100,62,27,29.57,29.43,5,1,10,0.00
2013-8-7,85.0,63.7,40.3,59.0,48.6,37.6,94,63,32,29.44,29.23,1,0,11,0.00
2013-8-8,82.5,64.2,45.3,53.5,46.8,42.0,94,60,26,29.29,29.23,0,0,6,0.00
2013-8-9,70.7,58.6,43.3,54.0,47.5,38.8,89,68,45,29.32,29.26,0,0,2,0.00
2013-8-10,68.9,60.7,46.9,52.7,48.5,43.1,96,67,46,29.60,29.31,6,1,13,0.00
2013-8-11,77.0,59.0,36.9,52.2,46.2,35.9,100,68,34,29.67,29.55,5,1,12,0.01
2013-8-12,75.6,63.7,49.7,63.6,55.7,48.0,98,77,55,29.68,29.58,5,1,10,0.00
2013-8-13,81.1,63.1,43.8,67.7,56.9,43.0,100,82,54,29.61,29.43,4,0,7,0.00
2013-8-14,69.0,61.0,49.6,61.7,57.7,49.6,100,89,74,29.53,29.43,12,2,14,0.01
2013-8-15,65.6,57.1,50.5,63.3,56.7,50.5,100,99,90,29.49,29.30,11,0,11,0.19
2013-8-16,70.9,59.6,49.1,62.3,56.3,49.1,100,90,62,29.32,29.23,8,1,8,0.02
2013-8-17,79.8,59.0,37.9,63.0,51.1,37.8,100,78,50,29.25,29.10,7,0,7,0.07
2013-8-18,70.5,59.4,50.7,61.2,54.6,50.5,100,86,51,29.16,29.10,11,0,11,0.02
2013-8-19,65.3,60.1,54.9,59.5,57.0,53.6,100,90,70,29.27,29.22,9,0,9,0.05
2013-8-20,55.0,51.5,41.5,55.0,51.4,40.4,100,100,96,29.40,29.26,13,1,13,0.74
2013-8-21,62.9,50.6,41.2,52.4,46.2,40.4,100,87,56,29.43,29.32,8,0,8,0.00
2013-8-22,66.4,52.7,35.7,57.7,46.5,34.7,100,82,56,29.33,29.20,9,1,9,0.01
2013-8-23,54.8,51.8,45.2,54.8,51.8,44.0,100,100,97,29.29,29.14,13,1,13,0.91
2013-8-24,59.3,48.5,37.9,47.9,39.9,32.4,100,76,37,29.55,29.29,13,1,13,0.01
2013-8-25,62.1,46.7,26.4,41.0,33.7,23.7,100,65,33,29.56,29.36,10,1,10,0.00
2013-8-26,65.1,51.7,37.8,43.9,34.3,28.8,76,53,31,29.45,29.38,14,1,14,0.00
2013-8-27,64.5,50.5,32.8,53.4,40.6,28.4,100,70,49,29.44,29.26,6,0,6,0.00
2013-8-28,57.8,52.0,45.1,53.0,49.3,44.0,100,91,70,29.35,29.26,13,1,13,0.03
2013-8-29,55.2,49.5,42.6,52.3,48.3,42.6,100,96,84,29.48,29.28,5,0,5,0.12
2013-8-30,56.5,50.6,45.7,50.3,47.6,42.4,100,90,62,29.59,29.48,12,1,12,0.06
2013-8-31,50.2,43.9,36.5,45.6,39.6,35.6,100,86,59,29.61,29.54,7,0,8,0.00
2013-9-1,51.8,42.5,30.0,41.8,34.8,28.6,100,76,45,29.54,29.29,12,2,12,0.00
2013-9-2,60.3,50.8,44.4,58.6,49.6,41.6,100,96,79,29.29,29.00,8,2,12,0.30
2013-9-3,72.3,56.5,41.7,57.4,50.5,41.7,100,83,45,29.05,28.81,14,1,14,0.03
2013-9-4,60.3,49.2,35.2,56.6,47.4,33.9,100,94,66,29.29,28.98,16,0,16,0.06
2013-9-5,60.7,49.1,34.7,50.4,44.4,34.4,100,85,56,29.60,29.29,8,0,8,0.00
2013-9-6,53.5,44.8,32.7,50.3,43.9,32.2,100,97,81,29.63,29.08,11,1,12,0.08
2013-9-7,56.3,47.4,39.9,56.0,47.4,39.6,100,100,97,29.29,29.08,6,0,6,0.00
2013-9-8,53.2,48.4,45.5,53.2,48.4,45.5,100,100,100,29.42,29.09,9,1,9,0.24
2013-9-9,60.9,48.8,32.8,54.8,46.3,32.8,100,92,69,29.44,29.30,8,1,8,0.00
2013-9-10,68.2,52.3,37.3,54.7,46.4,37.3,100,83,50,29.34,29.27,7,0,7,0.00
2013-9-11,49.2,44.1,34.6,49.2,44.0,34.6,100,100,88,29.43,29.18,16,2,16,0.85
2013-9-12,61.8,48.4,32.4,55.9,46.8,31.1,100,95,73,29.57,29.43,7,1,15,0.00
2013-9-13,50.5,41.4,29.7,50.0,40.7,29.6,100,97,85,29.57,29.46,7,0,7,0.02
2013-9-14,53.6,45.7,29.5,49.0,43.9,29.5,100,94,73,29.70,29.56,10,1,11,0.06
2013-9-15,54.8,36.7,20.9,40.3,29.7,19.2,100,79,42,29.75,29.60,10,0,10,0.01
2013-9-16,54.2,42.8,28.5,29.0,26.0,22.1,81,54,33,29.60,29.32,19,3,19,0.00
2013-9-17,44.1,36.6,29.5,26.2,22.6,18.8,67,57,44,29.32,29.24,10,1,12,0.00
2013-9-18,35.9,32.4,30.3,29.0,27.7,26.0,89,83,67,29.34,29.28,8,0,8,0.00
2013-9-20,33.0,30.9,29.6,24.6,24.1,23.3,80,75,70,28.92,28.83,2,0,2,0.00
2013-9-21,41.2,28.7,16.2,24.0,18.6,11.5,95,68,42,28.86,28.76,9,1,9,0.00
2013-9-22,29.3,28.5,26.3,23.6,22.3,19.5,81,77,75,28.95,28.85,4,2,5,0.00
2013-9-23,29.3,29.3,29.3,23.0,23.0,23.0,77,77,77,28.95,28.95,4,4,0,0.00
2013-9-24,29.3,29.3,29.3,23.0,23.0,23.0,77,77,77,28.95,28.95,4,4,0,0.00
2013-9-25,55.4,36.9,29.3,37.0,28.1,0.0,77,71,48,29.21,28.95,9,3,9,0.00
2013-9-26,48.1,41.8,34.2,38.7,35.6,30.7,89,79,68,29.27,28.95,8,0,8,0.00
2013-9-27,57.7,45.7,29.2,41.8,34.7,26.1,97,66,47,28.95,28.78,12,2,13,0.00
2013-9-28,46.5,39.0,28.9,37.8,34.1,0.0,92,83,66,28.96,28.88,8,0,8,0.05
2013-9-29,39.5,36.5,34.3,36.5,34.3,31.9,94,91,88,29.24,28.96,5,0,6,0.02
2013-9-30,41.2,36.1,29.6,33.7,30.9,27.8,100,82,61,29.46,29.24,6,0,6,0.02
2013-10-1,38.0,33.1,28.1,32.0,30.1,26.0,97,89,77,29.55,29.46,3,0,4,0.01
2013-10-2,46.3,36.1,28.6,38.5,30.9,26.1,100,82,60,29.55,29.45,4,0,7,0.00
2013-10-3,52.6,35.7,24.7,36.9,29.9,24.7,100,82,47,29.47,29.22,6,0,7,0.00
2013-10-4,38.2,32.0,25.1,35.8,30.1,23.1,100,93,83,29.46,29.21,3,0,4,0.00
2013-10-5,45.9,33.2,22.2,33.6,28.9,20.2,100,85,61,29.47,29.28,11,1,13,0.00
2013-10-6,43.1,34.9,27.9,32.7,29.9,25.7,93,83,63,29.33,29.26,9,0,10,0.00
2013-10-7,36.8,32.8,23.8,33.6,30.8,23.8,100,92,87,29.48,29.33,4,0,5,0.02
2013-10-8,50.4,41.9,26.4,36.6,31.7,25.9,100,69,49,29.34,28.59,13,2,13,0.04
2013-10-9,39.9,36.6,34.8,36.0,33.2,29.9,90,87,81,29.31,28.60,26,5,26,0.12
2013-10-10,39.9,31.3,21.6,30.9,26.8,19.1,93,84,70,29.34,29.24,14,1,20,0.00
2013-10-11,46.7,32.8,22.7,33.0,26.8,19.7,92,79,57,29.45,29.29,5,0,6,0.00
2013-10-12,54.2,36.2,22.8,36.6,27.6,19.5,94,73,45,29.42,29.29,7,0,7,0.00
2013-10-13,48.4,42.7,34.9,35.8,29.9,24.7,88,61,48,29.29,29.00,14,1,14,0.02
2013-10-14,45.7,35.8,29.0,38.6,32.4,27.2,96,88,68,29.53,29.19,13,0,16,0.00
2013-10-15,48.0,38.1,29.9,39.2,34.3,28.1,95,87,64,29.54,29.42,4,0,4,0.00
2013-10-16,53.4,44.1,37.8,41.3,37.8,32.7,92,79,59,29.69,29.50,6,0,6,0.00
2013-10-17,47.0,39.6,34.1,44.5,36.5,30.4,93,88,82,29.59,29.31,5,0,5,0.00
2013-10-18,51.4,37.6,28.5,41.6,33.7,25.9,97,87,64,29.31,29.17,4,0,5,0.00
2013-10-19,55.9,41.0,25.6,40.3,30.2,23.1,92,68,44,29.18,28.90,16,1,17,0.02
2013-10-20,48.2,33.4,25.7,36.0,28.4,22.6,92,83,54,29.50,29.18,4,0,4,0.00
2013-10-21,37.5,25.1,15.7,29.3,21.1,11.2,92,85,66,29.71,29.49,6,0,6,0.00
2013-10-22,36.8,22.6,13.2,25.7,17.0,8.7,87,79,62,29.79,29.69,5,0,5,0.00
2013-10-23,30.8,23.9,14.0,24.2,19.2,8.8,86,82,75,29.77,29.49,6,0,6,0.00
2013-10-24,36.4,28.5,15.8,23.1,19.1,11.1,84,69,50,29.59,29.28,16,2,16,0.00
2013-10-25,41.6,31.1,16.9,24.6,19.7,11.8,80,63,48,29.77,29.29,7,0,7,0.00
2013-10-26,34.2,17.5,5.9,23.5,11.2,-0.9,83,76,64,30.11,29.77,4,0,5,0.00
2013-10-27,41.2,37.3,18.9,35.5,23.4,14.0,86,58,40,29.95,29.26,12,1,14,0.02
2013-10-28,56.3,43.5,37.3,39.9,36.3,33.1,89,76,51,29.26,28.63,16,2,16,0.03
2013-10-29,38.6,33.9,23.4,35.6,30.7,20.0,91,88,81,29.14,28.87,14,1,14,0.04
2013-10-30,35.0,27.3,19.3,29.8,23.2,15.0,90,84,79,29.10,28.79,6,0,6,0.00
2013-10-31,27.6,23.6,15.6,24.8,20.2,10.8,89,86,81,29.30,28.87,4,0,4,0.00
2013-11-1,27.0,25.1,23.4,24.2,21.5,19.0,89,86,80,29.71,29.30,6,0,6,0.00
2013-11-2,28.2,21.3,8.5,21.0,16.0,2.4,86,80,72,29.71,29.41,8,1,8,0.00
2013-11-3,27.0,14.7,7.5,22.6,9.7,1.4,85,80,75,29.44,29.22,2,0,2,0.00
2013-11-4,24.2,12.8,4.0,18.9,7.4,-2.4,84,78,74,29.22,29.04,2,0,2,0.00
2013-11-5,25.0,16.9,7.5,21.1,11.9,1.2,86,80,74,29.82,29.12,13,1,13,0.00
2013-11-6,20.3,12.1,0.2,14.0,5.8,-7.5,80,75,66,29.94,29.73,11,1,13,0.00
2013-11-7,18.0,8.1,-11.7,3.6,-2.7,-21.8,67,61,51,29.73,29.50,16,3,18,0.00
2013-11-8,10.2,-4.1,-18.9,4.7,-12.5,-29.8,78,66,56,29.83,29.59,4,0,4,0.00
2013-11-9,26.0,20.8,5.1,22.1,16.0,-1.7,87,82,73,29.72,29.34,6,0,6,0.00
2013-11-10,31.2,27.6,24.1,28.9,24.6,20.7,91,88,86,29.52,29.34,8,0,8,0.00
2013-11-11,24.1,9.6,-7.5,20.8,4.3,-15.6,88,78,67,29.92,29.52,0,0,0,0.00
2013-11-12,11.6,1.0,-11.7,6.4,-5.9,-20.7,79,72,63,29.93,29.66,0,0,0,0.00
2013-11-13,41.2,18.1,5.7,36.6,13.7,-0.1,95,82,77,29.66,29.22,29,1,29,0.01
2013-11-14,42.6,31.4,19.3,35.7,25.0,9.5,89,77,63,29.69,29.21,27,4,32,0.00
2013-11-15,19.4,3.1,-9.5,9.6,-4.3,-18.5,76,70,64,29.77,29.64,8,0,12,0.00
2013-11-16,12.2,5.0,-16.2,6.7,-1.7,-26.0,79,73,60,29.97,29.68,4,0,5,0.00
2013-11-17,2.1,-5.7,-19.4,-4.6,-13.7,-29.9,73,67,57,30.05,29.95,0,0,0,0.00
2013-11-18,9.3,1.3,-2.1,-3.0,-5.7,-10.1,73,72,68,30.03,29.79,0,0,0,0.00
2013-11-19,2.5,-11.7,-32.0,-4.2,-21.0,-44.7,73,62,48,29.80,29.72,0,0,0,0.00
2013-11-20,-29.6,-36.1,-40.5,-41.8,-49.5,-54.9,50,45,42,29.98,29.78,0,0,0,0.00
2013-11-21,6.4,-32.3,-43.0,-0.1,-45.2,-58.2,75,48,39,29.92,29.16,0,0,0,0.00
2013-11-22,13.1,6.1,-3.3,7.9,-0.2,-10.9,80,75,68,29.16,28.84,0,0,0,0.00
2013-11-23,6.5,-0.1,-9.3,0.5,-7.2,-17.8,77,71,64,29.54,29.05,0,0,0,0.00
2013-11-24,9.8,0.5,-10.5,4.0,-6.5,-19.7,79,72,63,29.67,29.53,0,0,0,0.00
2013-11-25,11.5,1.1,-8.5,6.3,-5.7,-17.0,79,72,66,29.69,29.55,0,0,0,0.00
2013-11-26,1.7,-4.5,-10.4,-4.9,-12.3,-19.1,73,68,64,29.69,29.56,0,0,0,0.00
2013-11-27,4.1,1.0,-10.3,-2.7,-6.0,-18.9,73,72,65,29.68,29.48,0,0,0,0.00
2013-11-28,3.6,-4.2,-16.5,-2.8,-12.2,-26.8,74,68,58,29.67,29.47,0,0,0,0.00
2013-11-29,-8.0,-13.9,-22.9,-16.7,-23.6,-34.5,65,61,53,29.96,29.67,0,0,0,0.00
2013-11-30,-11.7,-24.9,-32.4,-21.0,-36.7,-45.8,62,52,46,30.36,29.96,0,0,0,0.00
2013-12-1,-22.5,-28.6,-32.9,-33.8,-41.2,-46.3,54,49,46,30.40,30.35,0,0,0,0.00
2013-12-2,-9.0,-22.8,-28.3,-18.0,-34.3,-40.9,64,53,49,30.39,30.31,0,0,0,0.00
2013-12-3,6.1,-1.6,-10.4,-0.4,-9.3,-19.5,74,69,63,30.35,30.18,0,0,0,0.00
2013-12-4,6.4,-6.1,-14.3,0.2,-14.6,-24.2,75,66,60,30.19,30.06,0,0,0,0.00
2013-12-5,20.1,6.8,-2.3,16.3,0.6,-10.4,86,75,68,30.11,30.02,2,0,2,0.00
2013-12-6,24.5,21.2,15.3,20.1,16.8,10.3,85,83,80,30.09,30.01,2,0,2,0.00
2013-12-7,26.1,22.6,16.7,22.3,18.7,12.4,87,85,82,30.03,29.90,3,0,3,0.00
2013-12-8,31.5,28.6,19.6,29.2,25.8,15.6,91,89,84,29.98,29.83,2,0,2,0.00
2013-12-9,31.3,28.6,26.4,29.0,25.9,23.1,91,90,87,29.87,29.74,0,0,0,0.00
2013-12-10,26.5,12.2,0.8,23.7,5.8,-7.0,89,75,65,29.98,29.74,10,0,10,0.00
2013-12-11,6.3,3.1,0.5,-3.9,-8.6,-12.8,69,57,51,29.95,29.68,21,4,21,0.00
2013-12-12,3.1,2.2,0.5,-10.6,-13.9,-16.3,58,46,41,29.69,29.47,25,9,26,0.00
2013-12-13,0.9,-3.4,-5.9,-11.1,-17.9,-20.3,56,49,45,29.47,28.92,14,3,15,0.00
2013-12-14,2.4,-1.3,-3.6,-5.8,-10.5,-16.0,68,64,47,29.02,28.81,11,1,12,0.00
2013-12-15,-2.9,-7.9,-18.5,-11.3,-17.2,-29.2,67,63,57,29.83,29.01,7,0,7,0.00
2013-12-16,-18.6,-35.6,-41.1,-29.2,-49.2,-56.1,57,45,40,30.02,29.82,1,0,1,0.00
2013-12-17,-10.2,-20.3,-32.5,-19.4,-31.2,-45.6,63,56,47,30.02,29.99,1,0,1,0.00
2013-12-18,-4.7,-7.8,-10.8,-13.1,-16.7,-20.6,66,64,61,30.00,29.80,1,0,1,0.00
2013-12-19,-2.5,-6.3,-9.3,-10.1,-14.7,-18.4,69,66,63,29.43,29.37,0,0,0,0.00
2013-12-20,0.7,-7.0,-10.9,-6.5,-15.6,-20.2,71,65,63,29.40,29.28,0,0,0,0.00
2013-12-21,12.8,4.5,-10.5,7.8,-2.1,-19.6,80,74,63,29.34,29.23,0,0,0,0.00
2013-12-22,13.4,5.6,-7.3,8.7,-0.7,-15.9,81,74,66,29.46,29.16,14,1,14,0.00
2013-12-23,8.9,-0.8,-10.5,1.6,-8.6,-20.1,74,69,62,29.83,29.46,9,0,13,0.00
2013-12-24,-10.4,-26.7,-37.4,-19.4,-38.5,-51.3,64,52,44,29.88,29.65,0,0,0,0.00
2013-12-25,-37.4,-40.6,-44.0,-51.2,-55.2,-59.2,44,41,39,29.69,29.62,0,0,0,0.00
2013-12-26,-43.7,-45.6,-47.3,-59.0,-61.2,-63.4,39,38,36,29.76,29.67,0,0,0,0.00
2013-12-27,-35.9,-44.4,-47.5,-49.4,-59.7,-63.6,45,39,36,29.80,29.75,0,0,0,0.00
2013-12-28,2.7,-12.5,-35.9,-4.0,-21.8,-49.4,73,62,45,29.77,29.66,1,0,1,0.00
2013-12-29,4.2,-8.0,-20.4,-2.2,-16.7,-31.2,74,65,56,29.73,29.55,0,0,0,0.00
2013-12-30,-20.0,-22.2,-24.1,-30.7,-33.3,-35.6,57,55,53,29.55,29.34,0,0,0,0.00
2013-12-31,-4.0,-15.2,-23.9,-12.1,-25.1,-35.5,68,60,53,29.42,29.12,0,0,0,0.00
2014-1-1,19.1,10.1,-7.0,15.1,4.4,-15.4,84,77,66,29.14,28.90,4,0,5,0.00
2014-1-2,9.1,2.5,-10.9,3.4,-4.3,-20.0,77,72,63,29.72,29.14,1,0,1,0.00